Location: Ladrillo (historical)
(32.8195°N, 117.2231°W)
Time: 22:27:07
(UTC+00:00)

X-37B - Pass Details

Date: 22 January 2021
Orbit: 383 x 391 km, 45.0° (Epoch: 10 February)

Event Time Altitude Azimuth Distance (km) Brightness Sun altitude
Rises 01:45:32 0° 269° (W) 2,264 6.2 -7.5°
Reaches altitude 10° 01:47:56 10° 287° (WNW) 1,414 4.4 -8.0°
Maximum altitude 01:50:24 20° 338° (NNW) 956 2.6 -8.5°
Drops below altitude 10° 01:52:53 10° 29° (NNE) 1,420 3.0 -9.0°
Enters shadow 01:53:23 - 34° (NE) 1,581 3.2 -9.1°
